FORMOSAT-3 FM3 (29050 NORAD) Tracking and Keplerian Element Data

This shows tracking and keplerian element data for the satellite.

Feedback or suggestion? Click here.




ElementValue
Catalog29050
NameFORMOSAT-3 FM3
Epoch Orbit67152
Epoch Day317.92587227
Epoch Year2018
RAAN142.1997
Inclination72.014
Eccentricity0.0051612
Argument of Perigee300.5515
Mean Anonmoly59.0549
Mean Motion14.58732427
Decay Rate1.87E-06
L11 29050U 06011D 18317.92587227 .00000187 00000-0 49899-4 0 9995
L22 29050 72.0140 142.1997 0051612 300.5515 59.0549 14.58732427671525

Live tracking and technical data element details for FORMOSAT-3 FM3 (NORAD 29050). FORMOSAT-3 FM3 can be tracked NOW for your location showing map with azimuth and elevation plus other details from your city location.

Track the satellite on the map from your city or location and see movement details for azimuth, elevation, latitude, longitude, range, height, and movement on the map or in text.







IsCatalogInMostPopularTable: catalog: 29050, numindb: 49
Update: records affected: 1



GetName: 29050 FORMOSAT-3 FM3

Hit Count: updated at: Fri, 16 Nov 2018 05:01:06 GMT